Location: Sawmill Trailhead
(33.5800°N, 116.4497°W)
Time: 12:40:47
(UTC-07:00)

Uosat F - Visible Passes

Search period start: 19 April 2018 00:00
Search period end: 29 April 2018 00:00
Orbit: 750 x 762 km, 98.7° (Epoch: 19 April)

Date Brightness Start Highest point End Pass type
(mag) Time Alt. Az. Time Alt. Az. Time Alt. Az.
19 Apr 14.0 21:05:12 10° WSW 21:06:57 12° W 21:08:42 10° WNW visible
20 Apr 12.9 20:22:43 10° SSW 20:27:09 31° W 20:31:35 10° NW visible
21 Apr 11.2 19:42:32 10° SSE 19:47:33 84° WSW 19:52:35 10° NNW visible
22 Apr 13.6 20:43:23 10° SW 20:46:59 20° W 20:50:36 10° NW visible
23 Apr 12.0 20:02:26 10° S 20:07:17 51° W 20:12:11 10° NNW visible
24 Apr 14.0 21:05:01 10° WSW 21:06:52 12° W 21:08:44 10° WNW visible
25 Apr 12.9 20:22:38 10° SSW 20:27:05 32° W 20:31:32 10° NW visible
27 Apr 13.6 20:43:17 10° SW 20:46:55 20° W 20:50:34 10° NW visible
28 Apr 11.9 20:02:22 10° S 20:07:14 52° W 20:12:07 10° NNW visible
